Location: Mesa
(33.4220°N, 111.8220°W)
Time: 22:00:51
(UTC-07:00)

Hubble Space Telescope - Pass Details

Date: 22 November 2019
Orbit: 536 x 540 km, 28.5° (Epoch: 07 December)

Event Time Altitude Azimuth Distance (km) Brightness Sun altitude
Rises 20:07:49 0° 264° (W) 2,671 5.4 -34.4°
Reaches altitude 10° 20:10:12 10° 255° (WSW) 1,780 4.2 -34.9°
Enters shadow 20:10:47 13° 252° (WSW) 1,577 3.8 -35.0°
